Fredericksburg, TX

1:25 PM CDT on April 23, 2018 (GMT -0500)
Fredericksburg

Weather History for KT82 - February, 2014

Change the Weather History Date:

Sunday, February 9, 2014

  Actual Average (KSAT) Record (KSAT)
Temperature  
Mean Temperature 54 °F -  
Max Temperature 77 °F 62 °F 91 °F (1962)
Min Temperature 30 °F 38 °F 15 °F (1933)
Degree Days  
Heating Degree Days 12    
Growing Degree Days 4 (Base 50)    
Moisture  
Dew Point 39 °F    
Average Humidity 64    
Maximum Humidity 93    
Minimum Humidity 22    
Precipitation  
Precipitation 0.00 in - - ()
Sea Level Pressure  
Sea Level Pressure 30.02 in    
Wind  
Wind Speed 4 mph (SW)    
Max Wind Speed 16 mph    
Max Gust Speed 22 mph    
Visibility 10 miles    
Events      
Averages and records for this station are not official NWS values.
T = Trace of Precipitation, MM = Missing Value Source: NWS Daily Summary

Daily Weather History Graph

Daily Weather History Graph

Search for Another Location

Airport or City:

Astronomy

Feb. 09, 2014 Rise Set
Actual Time 7:20 AM CST 6:19 PM CST
Civil Twilight 6:56 AM CST 6:44 PM CST
Nautical Twilight 6:27 AM CST 7:12 PM CST
Astronomical Twilight 5:59 AM CST 7:40 PM CST
Moon 2:07 PM CST (2/9) 3:20 AM CST (2/9)
Length of Visible Light 11h 48m
Length of Day
10h 58m
Waxing Gibbous, 77% of the Moon is Illuminated
Feb 9
Waxing Gibbous
Feb 14
Full
Feb 22
Last Quarter
Mar 1
New
Mar 8
First Quarter

Hourly Weather History & Observations

Time (CST) Temp. Windchill Dew Point Humidity Pressure Visibility Wind Dir Wind Speed Gust Speed Precip Events Conditions
12:15 AM 42.3 °F - 35.1 °F 76% 30.10 in 10.0 mi Calm Calm - N/A   Clear
12:35 AM 45.9 °F 44.6 °F 35.6 °F 67% 30.10 in 10.0 mi WSW 3.5 mph - N/A   Clear
12:55 AM 41.9 °F - 34.0 °F 73% 30.09 in 10.0 mi Calm Calm - N/A   Clear
1:15 AM 39.2 °F - 33.6 °F 80% 30.10 in 10.0 mi Calm Calm - N/A   Clear
1:35 AM 36.9 °F 34.3 °F 32.0 °F 83% 30.10 in 10.0 mi NNW 3.5 mph - N/A   Clear
1:55 AM 38.5 °F - 33.8 °F 83% 30.09 in 10.0 mi Calm Calm - N/A   Clear
2:15 AM 36.3 °F 33.7 °F 32.5 °F 86% 30.09 in 10.0 mi WNW 3.5 mph - N/A   Clear
2:35 AM 42.3 °F 40.5 °F 36.3 °F 79% 30.08 in 10.0 mi WSW 3.5 mph - N/A   Clear
2:55 AM 40.1 °F - 34.7 °F 81% 30.08 in 10.0 mi Calm Calm - N/A   Clear
3:15 AM 36.5 °F 33.9 °F 32.5 °F 86% 30.08 in 10.0 mi West 3.5 mph - N/A   Clear
3:35 AM 35.6 °F - 32.0 °F 87% 30.07 in 10.0 mi Calm Calm - N/A   Clear
3:55 AM 35.4 °F 32.6 °F 31.8 °F 87% 30.06 in 10.0 mi West 3.5 mph - N/A   Clear
4:15 AM 34.0 °F - 30.9 °F 89% 30.07 in 10.0 mi Calm Calm - N/A   Clear
4:35 AM 32.9 °F - 30.2 °F 90% 30.05 in 10.0 mi Calm Calm - N/A   Clear
4:55 AM 31.6 °F 27.0 °F 29.5 °F 92% 30.05 in 10.0 mi NW 4.6 mph - N/A   Clear
5:15 AM 32.7 °F 29.6 °F 30.2 °F 90% 30.06 in 10.0 mi WNW 3.5 mph - N/A   Clear
5:35 AM 32.2 °F - 30.2 °F 92% 30.05 in 10.0 mi Calm Calm - N/A   Clear
5:55 AM 30.9 °F 27.5 °F 28.6 °F 91% 30.05 in 10.0 mi NW 3.5 mph - N/A   Clear
6:15 AM 31.6 °F 28.3 °F 29.1 °F 90% 30.06 in 10.0 mi WNW 3.5 mph - N/A   Clear
6:35 AM 32.0 °F - 29.8 °F 92% 30.06 in 10.0 mi Calm Calm - N/A   Clear
6:55 AM 32.0 °F 28.7 °F 29.7 °F 91% 30.07 in 10.0 mi NW 3.5 mph - N/A   Clear
7:15 AM 32.0 °F 28.7 °F 30.2 °F 93% 30.07 in 10.0 mi West 3.5 mph - N/A   Clear
7:35 AM 31.8 °F 27.3 °F 30.0 °F 93% 30.07 in 10.0 mi West 4.6 mph - N/A   Clear
7:55 AM 32.9 °F - 30.9 °F 92% 30.07 in 10.0 mi Calm Calm - N/A   Clear
8:15 AM 35.2 °F - 32.2 °F 89% 30.06 in 10.0 mi Calm Calm - N/A   Clear
8:35 AM 39.2 °F - 35.2 °F 86% 30.07 in 10.0 mi Calm Calm - N/A   Clear
8:55 AM 45.1 °F - 39.2 °F 80% 30.07 in 10.0 mi Calm Calm - N/A   Clear
9:15 AM 51.3 °F - 42.4 °F 72% 30.08 in 10.0 mi West 5.8 mph - N/A   Clear
9:35 AM 53.8 °F - 44.1 °F 70% 30.08 in 10.0 mi West 3.5 mph - N/A   Clear
9:55 AM 57.2 °F - 46.4 °F 67% 30.07 in 10.0 mi WSW 4.6 mph - N/A   Clear
10:15 AM 60.1 °F - 46.8 °F 61% 30.06 in 10.0 mi SSW 4.6 mph - N/A   Clear
10:35 AM 63.0 °F - 47.5 °F 57% 30.06 in 10.0 mi SW 4.6 mph - N/A   Clear
10:55 AM 66.4 °F - 47.7 °F 51% 30.06 in 10.0 mi West 3.5 mph - N/A   Clear
11:15 AM 70.0 °F - 46.0 °F 42% 30.06 in 10.0 mi SSW 6.9 mph - N/A   Clear
11:35 AM 71.2 °F - 41.7 °F 34% 30.06 in 10.0 mi South 8.1 mph - N/A   Clear
11:55 AM 71.2 °F - 43.0 °F 36% 30.05 in 10.0 mi SW 10.4 mph - N/A   Clear
12:15 PM 72.1 °F - 43.2 °F 35% 30.04 in 10.0 mi SSW 10.4 mph - N/A   Clear
12:35 PM 73.0 °F - 42.4 °F 33% 30.03 in 10.0 mi South 9.2 mph - N/A   Clear
12:55 PM 74.3 °F - 41.0 °F 30% 30.02 in 10.0 mi South 9.2 mph - N/A   Clear
1:15 PM 75.4 °F - 37.0 °F 25% 30.00 in 10.0 mi SSW 6.9 mph - N/A   Clear
1:35 PM 75.7 °F - 35.1 °F 23% 29.99 in 10.0 mi SSW 10.4 mph - N/A   Clear
1:55 PM 75.2 °F - 38.3 °F 26% 29.98 in 10.0 mi SW 9.2 mph - N/A   Clear
2:15 PM 76.1 °F - 37.8 °F 25% 29.97 in 10.0 mi South 11.5 mph 16.1 mph N/A   Clear
2:35 PM 77.0 °F - 35.2 °F 22% 29.95 in 10.0 mi SSW 16.1 mph 21.9 mph N/A   Clear
2:55 PM 76.1 °F - 38.5 °F 26% 29.94 in 10.0 mi SSW 12.7 mph 18.4 mph N/A   Clear
3:15 PM 76.3 °F - 39.0 °F 26% 29.93 in 10.0 mi South 12.7 mph 18.4 mph N/A   Clear
3:35 PM 76.1 °F - 37.4 °F 25% 29.92 in 10.0 mi SW 12.7 mph 20.7 mph N/A   Clear
3:55 PM 76.1 °F - 35.8 °F 23% 29.92 in 10.0 mi SSW 15.0 mph - N/A   Clear
4:15 PM 76.3 °F - 37.4 °F 25% 29.92 in 10.0 mi South 11.5 mph 17.3 mph N/A   Clear
4:35 PM 75.6 °F - 37.0 °F 25% 29.92 in 10.0 mi SSW 15.0 mph - N/A   Clear
4:55 PM 74.7 °F - 38.1 °F 27% 29.92 in 10.0 mi SSW 15.0 mph 19.6 mph N/A   Clear
5:15 PM 73.0 °F - 39.4 °F 30% 29.92 in 10.0 mi South 11.5 mph - N/A   Clear
5:35 PM 71.6 °F - 42.1 °F 34% 29.93 in 10.0 mi South 9.2 mph - N/A   Clear
5:55 PM 69.6 °F - 42.3 °F 37% 29.95 in 10.0 mi SSW 6.9 mph - N/A   Clear
6:15 PM 66.7 °F - 43.2 °F 42% 29.95 in 10.0 mi South 6.9 mph - N/A   Clear
6:35 PM 64.2 °F - 43.9 °F 48% 29.95 in 10.0 mi South 4.6 mph - N/A   Clear
6:55 PM 62.6 °F - 45.5 °F 54% 29.96 in 10.0 mi South 8.1 mph - N/A   Clear
7:15 PM 61.7 °F - 46.6 °F 58% 29.97 in 10.0 mi SSE 4.6 mph - N/A   Clear
7:35 PM 59.5 °F - 46.8 °F 63% 29.98 in 10.0 mi South 8.1 mph - N/A   Clear
7:55 PM 58.8 °F - 47.1 °F 65% 29.99 in 10.0 mi SE 3.5 mph - N/A   Clear
8:15 PM 55.6 °F - 46.0 °F 70% 29.99 in 10.0 mi SSE 4.6 mph - N/A   Clear
8:35 PM 54.7 °F - 46.8 °F 75% 29.99 in 10.0 mi South 4.6 mph - N/A   Clear
8:55 PM 54.0 °F - 46.8 °F 77% 29.99 in 10.0 mi SSW 6.9 mph - N/A   Clear
9:15 PM 53.6 °F - 46.9 °F 78% 29.98 in 10.0 mi SW 6.9 mph - N/A   Clear
9:35 PM 51.4 °F - 45.9 °F 81% 29.99 in 10.0 mi Calm Calm - N/A   Clear
9:55 PM 47.3 °F - 43.9 °F 88% 29.99 in 10.0 mi North 3.5 mph - N/A   Clear
10:15 PM 48.7 °F - 45.3 °F 88% 29.99 in 10.0 mi Calm Calm - N/A   Clear
10:35 PM 43.7 °F - 41.7 °F 93% 30.00 in 10.0 mi Calm Calm - N/A   Clear
10:55 PM 45.5 °F - 42.6 °F 90% 30.00 in 10.0 mi Calm Calm - N/A   Clear
11:15 PM 45.0 °F 42.6 °F 42.1 °F 90% 30.01 in 10.0 mi NNW 4.6 mph - N/A   Scattered Clouds
11:35 PM 48.6 °F - 45.7 °F 90% 30.01 in 10.0 mi Calm Calm - N/A   Mostly Cloudy
11:55 PM 50.0 °F - 46.0 °F 86% 30.01 in 10.0 mi Calm Calm - N/A   Overcast